Location: Cahas Mountain Overlook
(37.0833°N, 80.1000°W)
Time: 11:26:32
(UTC-04:00)

A-11 Canister half - Pass Details

Date: 11 February 2026
Orbit: 1524 x 1683 km, 47.3° (Epoch: 16 March)

Event Time Altitude Azimuth Distance (km) Brightness Sun altitude
Rises 18:24:28 0° 239° (WSW) 4,702 13.2 -6.3°
Reaches altitude 10° 18:27:32 10° 240° (WSW) 3,706 12.4 -6.9°
Maximum altitude 18:36:53 82° 328° (NNW) 1,538 9.1 -8.7°
Drops below altitude 10° 18:46:14 10° 57° (ENE) 3,700 10.4 -10.5°
Enters shadow 18:46:33 - 57° (ENE) 3,800 10.5 -10.6°
